Weather History for KCVN - July, 2013

Change the Weather History Date:

Friday, July 19, 2013

  Actual Average Record
Temperature  
Mean Temperature 72 °F -  
Max Temperature 82 °F 90 °F 104 °F (1925)
Min Temperature 62 °F 64 °F 55 °F (1947)
Cooling Degree Days 7    
Growing Degree Days 22 (Base 50)    
Moisture  
Dew Point 60 °F    
Average Humidity 70    
Maximum Humidity 94    
Minimum Humidity 47    
Precipitation  
Precipitation 0.00 in - - ()
Sea Level Pressure  
Sea Level Pressure 30.17 in    
Wind  
Wind Speed 10 mph (SSW)    
Max Wind Speed 17 mph    
Max Gust Speed 21 mph    
Visibility 9 miles    
Events      
Averages and records for this station are not official NWS values.
T = Trace of Precipitation, MM = Missing Value Source: NWS Daily Summary

Daily Weather History Graph

Daily Weather History Graph

Search for Another Location

Airport or City:

Trip Planner

Search our weather history database for the weather conditions in past years. The results will help you decide how hot, cold, wet, or windy it might be!

Date:

Astronomy

Jul. 19, 2013 Rise Set
Actual Time 5:53 AM MDT 8:03 PM MDT
Civil Twilight 5:25 AM MDT 8:31 PM MDT
Nautical Twilight 4:50 AM MDT 9:06 PM MDT
Astronomical Twilight 4:13 AM MDT 9:43 PM MDT
Moon 5:08 PM MDT (7/19) 2:36 AM MDT (7/19)
Length of Visible Light 15h 05m
Length of Day
14h 09m
Waxing Gibbous, 87% of the Moon is Illuminated
Jul 19
Waxing Gibbous
Jul 22
Full
Jul 29
Last Quarter
Aug 6
New
Aug 14
First Quarter

Hourly Weather History & Observations

Time (MDT) Temp. Heat Index Dew Point Humidity Pressure Visibility Wind Dir Wind Speed Gust Speed Precip Events Conditions
12:15 AM 64.4 °F - 60.8 °F 88% 30.23 in 10.0 mi SSW 6.9 mph - N/A   Clear
12:35 AM 64.4 °F - 60.8 °F 88% 30.23 in 10.0 mi SSW 5.8 mph - N/A   Clear
12:55 AM 64.4 °F - 60.8 °F 88% 30.23 in 10.0 mi SSW 5.8 mph - N/A   Clear
1:15 AM 64.4 °F - 60.8 °F 88% 30.23 in 10.0 mi SSW 5.8 mph - N/A   Clear
1:35 AM 64.4 °F - 60.8 °F 88% 30.23 in 8.0 mi South 6.9 mph - N/A   Clear
1:55 AM 64.4 °F - 60.8 °F 88% 30.22 in 10.0 mi SSW 6.9 mph - N/A   Clear
2:15 AM 64.4 °F - 60.8 °F 88% 30.22 in 10.0 mi SSW 5.8 mph - N/A   Clear
2:35 AM 64.4 °F - 60.8 °F 88% 30.21 in 10.0 mi South 6.9 mph - N/A   Partly Cloudy
2:55 AM 62.6 °F - 59.0 °F 88% 30.21 in 5.0 mi South 6.9 mph - N/A   Partly Cloudy
3:15 AM 62.6 °F - 60.8 °F 94% 30.20 in 5.0 mi South 8.1 mph - N/A   Clear
3:35 AM 62.6 °F - 60.8 °F 94% 30.20 in 7.0 mi South 9.2 mph - N/A   Clear
3:55 AM 64.4 °F - 60.8 °F 88% 30.19 in 10.0 mi South 9.2 mph - N/A   Clear
4:15 AM 62.6 °F - 59.0 °F 88% 30.20 in 10.0 mi South 8.1 mph - N/A   Clear
4:35 AM 62.6 °F - 59.0 °F 88% 30.20 in 8.0 mi SSW 9.2 mph - N/A   Clear
4:55 AM 62.6 °F - 60.8 °F 94% 30.21 in 7.0 mi SSW 9.2 mph - N/A   Mostly Cloudy
5:15 AM 64.4 °F - 60.8 °F 88% 30.21 in 5.0 mi SSW 11.5 mph - N/A   Overcast
5:35 AM 64.4 °F - 60.8 °F 88% 30.21 in 5.0 mi SSW 12.7 mph - N/A   Overcast
5:55 AM 64.4 °F - 60.8 °F 88% 30.21 in 3.0 mi SW 10.4 mph - N/A   Overcast
6:15 AM 64.4 °F - 60.8 °F 88% 30.21 in 3.0 mi SSW 12.7 mph - N/A   Overcast
6:35 AM 62.6 °F - 60.8 °F 94% 30.21 in 3.0 mi SSW 13.8 mph - N/A   Overcast
6:55 AM 62.6 °F - 60.8 °F 94% 30.21 in 3.0 mi SW 12.7 mph - N/A   Overcast
7:15 AM 64.4 °F - 60.8 °F 88% 30.22 in 3.0 mi SSW 12.7 mph - N/A   Overcast
7:35 AM 64.4 °F - 60.8 °F 88% 30.22 in 4.0 mi SSW 12.7 mph - N/A   Overcast
7:55 AM 64.4 °F - 60.8 °F 88% 30.23 in 5.0 mi SSW 11.5 mph - N/A   Overcast
8:15 AM 64.4 °F - 60.8 °F 88% 30.23 in 5.0 mi SW 12.7 mph - N/A   Overcast
8:35 AM 66.2 °F - 60.8 °F 83% 30.23 in 5.0 mi SW 11.5 mph - N/A   Overcast
8:55 AM 66.2 °F - 60.8 °F 83% 30.23 in 7.0 mi SSW 13.8 mph - N/A   Overcast
9:15 AM 68.0 °F - 60.8 °F 78% 30.22 in 9.0 mi WSW 12.7 mph - N/A   Overcast
9:35 AM 69.8 °F - 62.6 °F 78% 30.22 in 10.0 mi SW 12.7 mph 16.1 mph N/A   Mostly Cloudy
9:55 AM 71.6 °F - 62.6 °F 73% 30.22 in 10.0 mi SSW 11.5 mph - N/A   Mostly Cloudy
10:15 AM 73.4 °F - 62.6 °F 69% 30.21 in 10.0 mi SSW 12.7 mph 19.6 mph N/A   Mostly Cloudy
10:35 AM 73.4 °F - 62.6 °F 69% 30.20 in 10.0 mi SSW 13.8 mph 18.4 mph N/A   Scattered Clouds
10:55 AM 75.2 °F - 60.8 °F 61% 30.19 in 10.0 mi SW 12.7 mph 19.6 mph N/A   Partly Cloudy
11:15 AM 75.2 °F - 60.8 °F 61% 30.20 in 10.0 mi SW 13.8 mph 19.6 mph N/A   Scattered Clouds
11:35 AM 77.0 °F - 60.8 °F 57% 30.20 in 10.0 mi SSW 11.5 mph - N/A   Mostly Cloudy
11:55 AM 77.0 °F - 60.8 °F 57% 30.19 in 10.0 mi SSW 13.8 mph 17.3 mph N/A   Scattered Clouds
12:15 PM 77.0 °F - 60.8 °F 57% 30.19 in 10.0 mi SSW 16.1 mph - N/A   Mostly Cloudy
12:35 PM 77.0 °F - 60.8 °F 57% 30.19 in 10.0 mi SSW 12.7 mph 18.4 mph N/A   Mostly Cloudy
12:55 PM 78.8 °F - 62.6 °F 57% 30.18 in 10.0 mi SW 11.5 mph 18.4 mph N/A   Mostly Cloudy
1:15 PM 80.6 °F 81.8 °F 62.6 °F 54% 30.18 in 10.0 mi South 11.5 mph 17.3 mph N/A   Scattered Clouds
1:35 PM 78.8 °F - 60.8 °F 54% 30.17 in 10.0 mi SW 11.5 mph 19.6 mph N/A   Mostly Cloudy
1:55 PM 78.8 °F - 60.8 °F 54% 30.17 in 10.0 mi SSW 9.2 mph 19.6 mph N/A   Overcast
2:15 PM 80.6 °F 81.5 °F 60.8 °F 51% 30.16 in 10.0 mi South 11.5 mph - N/A   Mostly Cloudy
2:35 PM 80.6 °F 81.5 °F 60.8 °F 51% 30.15 in 10.0 mi South 11.5 mph 17.3 mph N/A   Mostly Cloudy
2:55 PM 82.4 °F 82.9 °F 60.8 °F 48% 30.14 in 10.0 mi South 15.0 mph - N/A   Scattered Clouds
3:15 PM 82.4 °F 83.4 °F 62.6 °F 51% 30.13 in 10.0 mi South 11.5 mph 17.3 mph N/A   Scattered Clouds
3:35 PM 80.6 °F 81.5 °F 60.8 °F 51% 30.12 in 10.0 mi South 15.0 mph - N/A   Mostly Cloudy
3:55 PM 82.4 °F 82.9 °F 60.8 °F 48% 30.11 in 10.0 mi South 11.5 mph 19.6 mph N/A   Mostly Cloudy
4:15 PM 82.4 °F 82.9 °F 60.8 °F 48% 30.10 in 10.0 mi South 16.1 mph - N/A   Scattered Clouds
4:35 PM 82.4 °F 82.9 °F 60.8 °F 48% 30.09 in 10.0 mi South 15.0 mph 18.4 mph N/A   Partly Cloudy
4:55 PM 82.4 °F 82.9 °F 60.8 °F 48% 30.09 in 10.0 mi South 12.7 mph 19.6 mph N/A   Partly Cloudy
5:15 PM 82.4 °F 82.9 °F 60.8 °F 48% 30.08 in 10.0 mi South 17.3 mph 20.7 mph N/A   Clear
5:35 PM 82.4 °F 82.9 °F 60.8 °F 48% 30.08 in 10.0 mi South 12.7 mph 17.3 mph N/A   Clear
5:55 PM 82.4 °F 82.9 °F 60.8 °F 48% 30.08 in 10.0 mi South 13.8 mph - N/A   Clear
6:15 PM 80.6 °F 81.1 °F 59.0 °F 48% 30.07 in 10.0 mi South 15.0 mph - N/A   Clear
6:35 PM 80.6 °F 81.1 °F 59.0 °F 48% 30.07 in 10.0 mi South 13.8 mph 19.6 mph N/A   Clear
6:55 PM 80.6 °F 81.1 °F 59.0 °F 48% 30.08 in 10.0 mi South 13.8 mph - N/A   Clear
7:15 PM 78.8 °F - 57.2 °F 47% 30.08 in 10.0 mi South 11.5 mph - N/A   Clear
7:35 PM 77.0 °F - 57.2 °F 50% 30.08 in 10.0 mi South 11.5 mph - N/A   Clear
7:55 PM 75.2 °F - 57.2 °F 53% 30.08 in 10.0 mi South 10.4 mph - N/A   Clear
8:15 PM 73.4 °F - 57.2 °F 57% 30.09 in 10.0 mi South 8.1 mph - N/A   Clear
8:35 PM 71.6 °F - 59.0 °F 64% 30.10 in 10.0 mi South 9.2 mph - N/A   Clear
8:55 PM 71.6 °F - 59.0 °F 64% 30.11 in 10.0 mi South 8.1 mph - N/A   Clear
9:15 PM 71.6 °F - 60.8 °F 69% 30.11 in 10.0 mi South 6.9 mph - N/A   Clear
9:35 PM 69.8 °F - 60.8 °F 73% 30.12 in 10.0 mi South 8.1 mph - N/A   Clear
9:55 PM 69.8 °F - 60.8 °F 73% 30.13 in 10.0 mi South 6.9 mph - N/A   Clear
10:15 PM 69.8 °F - 60.8 °F 73% 30.14 in 10.0 mi South 6.9 mph - N/A   Clear
10:35 PM 68.0 °F - 59.0 °F 73% 30.14 in 10.0 mi South 8.1 mph - N/A   Clear
10:55 PM 68.0 °F - 59.0 °F 73% 30.15 in 10.0 mi South 5.8 mph - N/A   Clear
11:15 PM 66.2 °F - 59.0 °F 78% 30.16 in 10.0 mi South 5.8 mph - N/A   Clear
11:35 PM 66.2 °F - 59.0 °F 78% 30.16 in 9.0 mi South 5.8 mph - N/A   Clear
11:55 PM 66.2 °F - 60.8 °F 83% 30.16 in 10.0 mi South 8.1 mph - N/A   Clear